Location: La Fredeussais
(48.1780°N, 1.3980°W)
Time: 09:39:39
(UTC+00:00)

Cosmos 1666 Rocket - Pass Details

Date: 09 May 2021
Orbit: 602 x 634 km, 82.5° (Epoch: 12 June)

Event Time Altitude Azimuth Distance (km) Brightness Sun altitude
Rises 20:26:43 0° 354° (N) 2,915 7.8 -8.6°
Reaches altitude 10° 20:29:02 10° 359° (N) 1,999 6.8 -8.9°
Maximum altitude 20:33:21 52° 77° (ENE) 771 3.8 -9.5°
Enters shadow 20:37:21 12° 153° (SSE) 1,867 5.4 -10.0°
